Location: Unspecified
(0.0000°N, 0.0000°E)
Time: 04:53:30
(UTC+00:00)

Tiangong 2 - Pass Details

Date: 14 June 2019
Orbit: 376 x 388 km, 42.8° (Epoch: 26 June)

Event Time Altitude Azimuth Distance (km) Brightness Sun altitude
Exits shadow 05:27:43 - 226° (SW) 1,515 3.5 -7.5°
Reaches altitude 10° 05:28:00 10° 226° (SW) 1,398 3.3 -7.4°
Maximum altitude 05:31:09 83° 312° (NW) 388 1.0 -6.7°
Drops below altitude 10° 05:34:19 10° 43° (NE) 1,398 5.2 -5.9°
Sets 05:36:23 0° 44° (NE) 2,250 6.4 -5.5°
